Zurück zum Katalog

COSMOS 1375 DEB

AktivLEO
NORAD 17802·DEBRIS·🇷🇺 Russia

Gestartet Jun 6, 1982 von Plesetsk Cosmodrome

Loading…

Nächste Überflüge (nächste 24 Stunden)

TLE

AktuellSource: Space-Track

Epoche: Sep 14, 2026, 10:35 UTC

1 17802U 82055AU  26257.44153073  .00000158  00000-0  23817-3 0  9995
2 17802  65.8317 263.8578 0048960 261.9805 170.7872 13.77476433 50368

Verfolge COSMOS 1375 DEB in Echtzeit mit AllMySat

Download on the App Store